| time (UTC) | temp C | wind direction | speed KPH | gust KPH | rain 1hr cm | rain 24hr cm | rain mn cm | humidity % | barometer mb |
| 20260508073108 | 26 | 288 | 0.0 | 6.4 | 0.00 | 0.00 | 0.00 | 87 | 1008.5 |
| 20260508071602 | 26 | 304 | 1.6 | 8.0 | 0.00 | 0.00 | 0.00 | 86 | 1008.7 |
| 20260508070101 | 26 | 311 | 3.2 | 8.0 | 0.00 | 0.00 | 0.00 | 86 | 1009.1 |
| 20260508064605 | 26 | 319 | 0.0 | 0.0 | 0.00 | 0.00 | 0.00 | 86 | 1009.5 |
| 20260508063052 | 26 | 265 | 0.0 | 0.0 | 0.00 | 0.00 | 0.00 | 86 | 1009.8 |
| 20260508061558 | 27 | 265 | 0.0 | 0.0 | 0.00 | 0.00 | 0.00 | 87 | 1010.2 |
| 20260508060049 | 27 | 265 | 0.0 | 0.0 | 0.00 | 0.00 | 0.00 | 87 | 1010.3 |
| 20260508054608 | 27 | 261 | 0.0 | 0.0 | 0.00 | 0.00 | 0.00 | 87 | 1010.3 |
| 20260508053044 | 27 | 261 | 0.0 | 0.0 | 0.00 | 0.00 | 0.00 | 87 | 1010.2 |
| 20260508051545 | 27 | 263 | 0.0 | 0.0 | 0.00 | 0.00 | 0.00 | 86 | 1010.2 |
| 20260508050040 | 27 | 263 | 0.0 | 6.4 | 0.00 | 0.00 | 0.00 | 86 | 1010.0 |
| 20260508044536 | 27 | 281 | 0.0 | 3.2 | 0.00 | 0.00 | 0.00 | 85 | 1009.9 |
| 20260508043043 | 27 | 284 | 0.0 | 1.6 | 0.00 | 0.00 | 0.00 | 85 | 1009.7 |
| 20260508041534 | 27 | 286 | 0.0 | 3.2 | 0.00 | 0.00 | 0.00 | 85 | 1009.6 |
| 20260508040107 | 27 | 204 | 0.0 | 3.2 | 0.00 | 0.00 | 0.00 | 85 | 1009.7 |
| 20260508034558 | 27 | 204 | 0.0 | 1.6 | 0.00 | 0.00 | 0.00 | 85 | 1009.6 |
| 20260508033057 | 27 | 205 | 0.0 | 3.2 | 0.00 | 0.00 | 0.00 | 84 | 1009.4 |
| 20260508031557 | 28 | 240 | 0.0 | 6.4 | 0.00 | 0.00 | 0.00 | 84 | 1009.1 |
| 20260508030054 | 28 | 248 | 1.6 | 4.8 | 0.00 | 0.00 | 0.00 | 83 | 1008.9 |
| 20260508024545 | 28 | 231 | 0.0 | 6.4 | 0.00 | 0.00 | 0.00 | 83 | 1008.9 |
| 20260508023039 | 28 | 208 | 0.0 | 8.0 | 0.00 | 0.00 | 0.00 | 83 | 1008.7 |
| 20260508021536 | 28 | 219 | 0.0 | 3.2 | 0.00 | 0.00 | 0.00 | 83 | 1008.5 |
| 20260508020029 | 28 | 238 | 1.6 | 9.7 | 0.00 | 0.00 | 0.00 | 83 | 1008.3 |
| 20260508014527 | 28 | 198 | 0.0 | 9.7 | 0.00 | 0.00 | 0.00 | 83 | 1008.0 |
| 20260508013023 | 28 | 221 | 0.0 | 11.3 | 0.00 | 0.00 | 0.00 | 83 | 1007.8 |
| 20260508011523 | 28 | 360 | 8.0 | 16.1 | 0.00 | 0.00 | 0.00 | 82 | 1007.8 |
| 20260508010025 | 29 | 221 | 9.7 | 17.7 | 0.00 | 0.00 | 0.00 | 82 | 1007.5 |
| 20260508004529 | 29 | 182 | 1.6 | 19.3 | 0.00 | 0.00 | 0.00 | 80 | 1007.5 |
| 20260508003011 | 30 | 185 | 11.3 | 19.3 | 0.00 | 0.00 | 0.00 | 77 | 1007.1 |
| 20260508001510 | 30 | 164 | 8.0 | 24.1 | 0.00 | 0.00 | 0.00 | 76 | 1006.9 |
| 20260508000008 | 30 | 205 | 12.9 | 22.5 | 0.00 | 0.00 | 0.00 | 73 | 1006.7 |
| 20260507234515 | 31 | 360 | 8.0 | 30.6 | 0.00 | 0.00 | 0.00 | 74 | 1006.5 |
| 20260507233013 | 31 | 164 | 11.3 | 29.0 | 0.00 | 0.00 | 0.00 | 74 | 1006.3 |
| 20260507231504 | 31 | 170 | 16.1 | 29.0 | 0.00 | 0.00 | 0.00 | 71 | 1006.2 |
| 20260507230006 | 31 | 212 | 12.9 | 29.0 | 0.00 | 0.00 | 0.00 | 70 | 1006.1 |
| 20260507230004 | 31 | 207 | 12.9 | 29.0 | 0.00 | 0.00 | 0.00 | 70 | 1006.1 |
| 20260507224503 | 32 | 205 | 14.5 | 30.6 | 0.00 | 0.00 | 0.00 | 68 | 1006.0 |
| 20260507223002 | 32 | 206 | 17.7 | 32.2 | 0.00 | 0.00 | 0.00 | 64 | 1005.9 |
| 20260507221603 | 32 | 175 | 20.9 | 38.6 | 0.00 | 0.00 | 0.00 | 62 | 1005.8 |
| 20260507220058 | 33 | 198 | 16.1 | 33.8 | 0.00 | 0.00 | 0.00 | 59 | 1005.6 |
| 20260507214555 | 33 | 178 | 16.1 | 25.7 | 0.00 | 0.00 | 0.00 | 58 | 1005.5 |
| 20260507213054 | 33 | 139 | 14.5 | 32.2 | 0.00 | 0.00 | 0.00 | 60 | 1005.5 |
| 20260507211529 | 33 | 182 | 24.1 | 37.0 | 0.00 | 0.00 | 0.00 | 59 | 1005.8 |
| 20260507210022 | 33 | 219 | 14.5 | 38.6 | 0.00 | 0.00 | 0.00 | 59 | 1005.8 |
| 20260507204516 | 33 | 360 | 14.5 | 35.4 | 0.00 | 0.00 | 0.00 | 58 | 1005.9 |
| 20260507203014 | 33 | 190 | 17.7 | 33.8 | 0.00 | 0.00 | 0.00 | 57 | 1006.0 |
| 20260507201515 | 33 | 210 | 22.5 | 38.6 | 0.00 | 0.00 | 0.00 | 56 | 1006.2 |
| 20260507200009 | 33 | 360 | 22.5 | 37.0 | 0.00 | 0.00 | 0.00 | 57 | 1006.5 |
| 20260507194539 | 33 | 221 | 20.9 | 32.2 | 0.00 | 0.00 | 0.00 | 54 | 1006.7 |
| 20260507193035 | 35 | 360 | 12.9 | 33.8 | 0.00 | 0.00 | 0.00 | 54 | 1007.0 |
| 20260507191504 | 34 | 207 | 14.5 | 24.1 | 0.00 | 0.00 | 0.00 | 55 | 1007.2 |
| 20260507190100 | 33 | 163 | 19.3 | 33.8 | 0.00 | 0.00 | 0.00 | 54 | 1007.6 |
| 20260507184526 | 33 | 225 | 16.1 | 29.0 | 0.00 | 0.00 | 0.00 | 55 | 1007.9 |
| 20260507183025 | 33 | 186 | 16.1 | 32.2 | 0.00 | 0.00 | 0.00 | 56 | 1008.3 |
| 20260507181520 | 33 | 207 | 19.3 | 32.2 | 0.00 | 0.00 | 0.00 | 61 | 1008.5 |
| 20260507180019 | 33 | 180 | 22.5 | 33.8 | 0.00 | 0.00 | 0.00 | 61 | 1008.5 |
| 20260507174539 | 33 | 175 | 11.3 | 32.2 | 0.00 | 0.00 | 0.00 | 61 | 1008.6 |
| 20260507173023 | 32 | 195 | 17.7 | 29.0 | 0.00 | 0.00 | 0.00 | 63 | 1008.7 |
| 20260507171518 | 32 | 155 | 20.9 | 33.8 | 0.00 | 0.00 | 0.00 | 62 | 1008.8 |
| 20260507170013 | 33 | 176 | 14.5 | 29.0 | 0.00 | 0.00 | 0.00 | 60 | 1008.8 |
| 20260507164512 | 33 | 219 | 16.1 | 29.0 | 0.00 | 0.00 | 0.00 | 59 | 1008.9 |
| 20260507163008 | 32 | 212 | 14.5 | 22.5 | 0.00 | 0.00 | 0.00 | 62 | 1009.1 |
| 20260507161503 | 32 | 161 | 14.5 | 29.0 | 0.00 | 0.00 | 0.00 | 63 | 1009.3 |
| 20260507160118 | 32 | 221 | 16.1 | 24.1 | 0.00 | 0.00 | 0.00 | 64 | 1009.2 |
| 20260507154557 | 32 | 111 | 9.7 | 16.1 | 0.00 | 0.00 | 0.00 | 64 | 1009.1 |
| 20260507153052 | 31 | 181 | 6.4 | 14.5 | 0.00 | 0.00 | 0.00 | 62 | 1009.1 |
| 20260507151519 | 30 | 291 | 4.8 | 14.5 | 0.00 | 0.00 | 0.00 | 65 | 1009.2 |
| 20260507150018 | 30 | 158 | 9.7 | 14.5 | 0.00 | 0.00 | 0.00 | 67 | 1009.2 |
| 20260507144513 | 29 | 320 | 9.7 | 16.1 | 0.00 | 0.00 | 0.00 | 70 | 1009.1 |
| 20260507143012 | 28 | 254 | 4.8 | 14.5 | 0.00 | 0.00 | 0.00 | 72 | 1008.9 |
| 20260507141511 | 28 | 277 | 4.8 | 16.1 | 0.00 | 0.00 | 0.00 | 74 | 1008.7 |
| 20260507140026 | 27 | 282 | 6.4 | 12.9 | 0.00 | 0.00 | 0.00 | 78 | 1008.8 |
| 20260507134509 | 26 | 271 | 0.0 | 1.6 | 0.00 | 0.00 | 0.00 | 80 | 1008.7 |
| 20260507133111 | 25 | 274 | 1.6 | 6.4 | 0.00 | 0.00 | 0.00 | 79 | 1008.5 |
| 20260507131507 | 25 | 255 | 0.0 | 6.4 | 0.00 | 0.00 | 0.00 | 80 | 1008.4 |
| 20260507130007 | 25 | 302 | 0.0 | 8.0 | 0.00 | 0.00 | 0.00 | 85 | 1008.5 |
| 20260507124503 | 24 | 316 | 9.7 | 11.3 | 0.00 | 0.00 | 0.00 | 86 | 1008.4 |
| 20260507123106 | 23 | 298 | 3.2 | 9.7 | 0.00 | 0.00 | 0.00 | 86 | 1008.8 |
| 20260507121601 | 24 | 314 | 0.0 | 8.0 | 0.00 | 0.00 | 0.00 | 86 | 1009.1 |
| 20260507120057 | 24 | 317 | 4.8 | 11.3 | 0.00 | 0.00 | 0.00 | 85 | 1009.2 |
| 20260507114555 | 24 | 314 | 6.4 | 12.9 | 0.00 | 0.00 | 0.00 | 85 | 1009.1 |
| 20260507113126 | 24 | 317 | 9.7 | 12.9 | 0.00 | 0.00 | 0.00 | 85 | 1009.2 |
| 20260507111549 | 24 | 329 | 4.8 | 9.7 | 0.00 | 0.00 | 0.00 | 85 | 1009.4 |
| 20260507110048 | 25 | 335 | 0.0 | 0.0 | 0.00 | 0.00 | 0.00 | 86 | 1009.2 |
| 20260507104557 | 25 | 335 | 0.0 | 0.0 | 0.00 | 0.00 | 0.00 | 86 | 1009.0 |
| 20260507103044 | 25 | 272 | 0.0 | 0.0 | 0.00 | 0.00 | 0.00 | 86 | 1008.6 |
| 20260507101543 | 25 | 272 | 0.0 | 0.0 | 0.00 | 0.00 | 0.00 | 87 | 1008.5 |
| 20260507100052 | 25 | 272 | 0.0 | 0.0 | 0.00 | 0.00 | 0.00 | 88 | 1008.3 |
| 20260507094540 | 25 | 265 | 0.0 | 0.0 | 0.00 | 0.00 | 0.00 | 88 | 1008.2 |
| 20260507093039 | 25 | 266 | 0.0 | 0.0 | 0.00 | 0.00 | 0.00 | 88 | 1008.3 |
| 20260507091540 | 26 | 266 | 0.0 | 0.0 | 0.00 | 0.00 | 0.00 | 88 | 1008.3 |
| 20260507090006 | 26 | 266 | 0.0 | 0.0 | 0.00 | 0.00 | 0.00 | 88 | 1008.4 |
| 20260507084502 | 26 | 277 | 0.0 | 6.4 | 0.00 | 0.00 | 0.00 | 88 | 1008.4 |
| 20260507083058 | 26 | 240 | 0.0 | 0.0 | 0.00 | 0.00 | 0.00 | 88 | 1008.6 |
| 20260507081556 | 26 | 237 | 0.0 | 0.0 | 0.00 | 0.00 | 0.00 | 87 | 1008.7 |
| 20260507080056 | 27 | 236 | 1.6 | 9.7 | 0.00 | 0.00 | 0.00 | 87 | 1008.9 |
| 20260507074554 | 27 | 273 | 1.6 | 9.7 | 0.00 | 0.00 | 0.00 | 86 | 1009.0 |